When you browse on this site, cookies collect data to enhance your experience and personalize the content and advertising you see.
Visit our Privacy Policy to learn more. By continuing to use the site, you agree to this use of cookies and data.
  • In Italy
  • List of Countries
  • For 7 days
  • Water Temperature
  • Weather Map
  • Weather Widgets
  • user-avatar
    Login

    Hourly Weather Donskoy

    Today, 21 September, Saturday

    Time Temperature Precipitation Wind Pressure Humidity
    00:00 +5°C° 0 mm 1 mps 740 mmHg 90%
    01:00 +4°C° 0 mm 2 mps 741 mmHg 91%
    02:00 +3°C° 0 mm 2 mps 741 mmHg 92%
    03:00 +3°C° 0 mm 2 mps 741 mmHg 95%
    04:00 +3°C° 0 mm 2 mps 741 mmHg 95%
    05:00 +3°C° 0 mm 2 mps 741 mmHg 95%
    06:00 +2°C° 0 mm 2 mps 741 mmHg 95%
    07:00 +2°C° 0 mm 3 mps 741 mmHg 91%
    08:00 +3°C° 0 mm 3 mps 741 mmHg 86%
    09:00 +5°C° 0 mm 3 mps 742 mmHg 80%
    10:00 +6°C° 0.1 mm 4 mps 742 mmHg 74%
    11:00 +7°C° 0.1 mm 4 mps 742 mmHg 68%
    12:00 +8°C° 0.1 mm 4 mps 741 mmHg 62%
    13:00 +8°C° 0.1 mm 4 mps 741 mmHg 58%
    14:00 +8°C° 0.1 mm 4 mps 741 mmHg 55%
    15:00 +10°C° 0.1 mm 4 mps 741 mmHg 52%
    16:00 +8°C° 0 mm 4 mps 740 mmHg 56%
    17:00 +8°C° 0 mm 3 mps 740 mmHg 60%
    18:00 +7°C° 0 mm 3 mps 740 mmHg 64%
    19:00 +5°C° 0 mm 3 mps 740 mmHg 65%
    20:00 +4°C° 0 mm 3 mps 739 mmHg 66%
    21:00 +4°C° 0 mm 3 mps 739 mmHg 67%
    22:00 +4°C° 0 mm 3 mps 738 mmHg 68%
    23:00 +4°C° 0 mm 4 mps 737 mmHg 69%

    Tomorrow, 22 September, Sunday

    Time Temperature Precipitation Wind Pressure Humidity
    00:00 +4°C° 0 mm 4 mps 737 mmHg 71%
    01:00 +3°C° 0.2 mm 5 mps 736 mmHg 78%
    02:00 +3°C° 0.2 mm 6 mps 735 mmHg 85%
    03:00 +2°C° 0.2 mm 6 mps 734 mmHg 92%
    04:00 +3°C° 0.5 mm 6 mps 733 mmHg 92%
    05:00 +4°C° 0.5 mm 6 mps 732 mmHg 93%
    06:00 +5°C° 0.5 mm 5 mps 731 mmHg 93%
    07:00 +6°C° 0.2 mm 5 mps 731 mmHg 92%
    08:00 +6°C° 0.2 mm 5 mps 730 mmHg 90%
    09:00 +7°C° 0.2 mm 5 mps 730 mmHg 89%
    10:00 +5°C° 0.1 mm 7 mps 730 mmHg 84%
    11:00 +5°C° 0.1 mm 8 mps 730 mmHg 80%
    12:00 +5°C° 0.1 mm 9 mps 730 mmHg 75%
    13:00 +5°C° 0.1 mm 10 mps 730 mmHg 69%
    14:00 +6°C° 0.1 mm 10 mps 731 mmHg 63%
    15:00 +6°C° 0.1 mm 10 mps 731 mmHg 58%
    16:00 +5°C° 0.1 mm 10 mps 732 mmHg 60%
    17:00 +3°C° 0.1 mm 9 mps 732 mmHg 63%
    18:00 +2°C° 0.1 mm 8 mps 733 mmHg 66%
    19:00 +2°C° 0 mm 8 mps 733 mmHg 68%
    20:00 +1°C° 0 mm 8 mps 734 mmHg 69%
    21:00 +1°C° 0 mm 8 mps 735 mmHg 71%
    22:00 0°C° 0 mm 7 mps 735 mmHg 73%
    23:00 0°C° 0 mm 7 mps 736 mmHg 76%

    Day after tomorrow, 23 September, Monday

    Time Temperature Precipitation Wind Pressure Humidity
    00:00 0°C° 0 mm 7 mps 737 mmHg 78%
    01:00 +1°C° 0 mm 6 mps 737 mmHg 78%
    02:00 +1°C° 0 mm 6 mps 738 mmHg 78%
    03:00 +1°C° 0 mm 6 mps 739 mmHg 78%
    04:00 0°C° 0 mm 5 mps 739 mmHg 80%
    05:00 0°C° 0 mm 5 mps 740 mmHg 81%
    06:00 0°C° 0 mm 5 mps 740 mmHg 83%
    07:00 0°C° 0 mm 5 mps 740 mmHg 80%
    08:00 +1°C° 0 mm 6 mps 741 mmHg 76%
    09:00 +1°C° 0 mm 6 mps 741 mmHg 73%
    10:00 +2°C° 0 mm 6 mps 742 mmHg 70%
    11:00 +3°C° 0 mm 6 mps 742 mmHg 66%
    12:00 +4°C° 0 mm 6 mps 742 mmHg 63%
    13:00 +5°C° 0 mm 6 mps 742 mmHg 60%
    14:00 +5°C° 0 mm 6 mps 742 mmHg 58%
    15:00 +6°C° 0 mm 7 mps 742 mmHg 55%
    16:00 +7°C° 0 mm 6 mps 742 mmHg 57%
    17:00 +6°C° 0 mm 5 mps 743 mmHg 59%
    18:00 +5°C° 0 mm 5 mps 743 mmHg 61%
    19:00 +3°C° 0 mm 5 mps 743 mmHg 64%
    20:00 +4°C° 0 mm 4 mps 743 mmHg 67%
    21:00 +3°C° 0 mm 4 mps 744 mmHg 70%
    22:00 +1°C° 0 mm 4 mps 744 mmHg 71%
    23:00 +1°C° 0 mm 3 mps 744 mmHg 73%

    24 September, Tuesday

    Time Temperature Precipitation Wind Pressure Humidity
    00:00 +1°C° 0 mm 3 mps 744 mmHg 75%
    01:00 0°C° 0 mm 3 mps 744 mmHg 77%
    02:00 0°C° 0 mm 3 mps 744 mmHg 79%
    03:00 0°C° 0 mm 3 mps 744 mmHg 81%
    04:00 -1°C° 0 mm 3 mps 744 mmHg 84%
    05:00 -1°C° 0 mm 3 mps 744 mmHg 87%
    06:00 -1°C° 0 mm 3 mps 744 mmHg 89%
    07:00 0°C° 0 mm 3 mps 744 mmHg 84%
    08:00 +1°C° 0 mm 3 mps 744 mmHg 78%
    09:00 +2°C° 0 mm 3 mps 745 mmHg 72%
    10:00 +4°C° 0 mm 3 mps 745 mmHg 67%
    11:00 +5°C° 0 mm 4 mps 745 mmHg 61%
    12:00 +6°C° 0 mm 4 mps 745 mmHg 55%
    13:00 +6°C° 0 mm 4 mps 744 mmHg 56%
    14:00 +6°C° 0 mm 4 mps 744 mmHg 57%
    15:00 +6°C° 0 mm 4 mps 744 mmHg 57%
    16:00 +5°C° 0 mm 3 mps 744 mmHg 61%
    17:00 +5°C° 0 mm 3 mps 744 mmHg 64%
    18:00 +6°C° 0 mm 2 mps 744 mmHg 67%
    19:00 +5°C° 0 mm 2 mps 744 mmHg 70%
    20:00 +4°C° 0 mm 2 mps 744 mmHg 73%
    21:00 +4°C° 0 mm 2 mps 744 mmHg 75%
    22:00 +3°C° 0 mm 2 mps 744 mmHg 77%
    23:00 +3°C° 0 mm 2 mps 744 mmHg 78%

    25 September, Wednesday

    Time Temperature Precipitation Wind Pressure Humidity
    00:00 +2°C° 0 mm 2 mps 745 mmHg 80%
    01:00 +2°C° 0 mm 2 mps 745 mmHg 82%
    02:00 +1°C° 0 mm 2 mps 745 mmHg 84%
    03:00 +1°C° 0 mm 2 mps 745 mmHg 86%
    04:00 -1°C° 0 mm 2 mps 745 mmHg 87%
    05:00 +1°C° 0 mm 1 mps 745 mmHg 88%
    06:00 +1°C° 0 mm 1 mps 744 mmHg 89%
    07:00 +2°C° 0 mm 1 mps 745 mmHg 83%
    08:00 +2°C° 0 mm 2 mps 745 mmHg 76%
    09:00 +4°C° 0 mm 2 mps 745 mmHg 70%
    10:00 +5°C° 0 mm 2 mps 745 mmHg 66%
    11:00 +6°C° 0 mm 2 mps 745 mmHg 61%
    12:00 +7°C° 0 mm 2 mps 745 mmHg 57%
    13:00 +8°C° 0 mm 2 mps 745 mmHg 56%
    14:00 +8°C° 0 mm 2 mps 745 mmHg 54%
    15:00 +8°C° 0 mm 2 mps 745 mmHg 53%
    16:00 +7°C° 0 mm 2 mps 745 mmHg 55%
    17:00 +8°C° 0 mm 1 mps 745 mmHg 58%
    18:00 +7°C° 0 mm 1 mps 745 mmHg 61%
    19:00 +6°C° 0 mm 1 mps 745 mmHg 63%
    20:00 +6°C° 0 mm 1 mps 745 mmHg 65%
    21:00 +4°C° 0 mm 0 mps 745 mmHg 67%
    22:00 +4°C° 0 mm 1 mps 745 mmHg 68%
    23:00 +4°C° 0 mm 1 mps 745 mmHg 69%

    26 September, Thursday

    Time Temperature Precipitation Wind Pressure Humidity
    00:00 +4°C° 0 mm 1 mps 745 mmHg 70%
    01:00 +4°C° 0 mm 1 mps 745 mmHg 71%
    02:00 +2°C° 0 mm 2 mps 745 mmHg 72%
    03:00 +2°C° 0 mm 2 mps 745 mmHg 73%
    04:00 +2°C° 0 mm 2 mps 745 mmHg 73%
    05:00 +2°C° 0 mm 2 mps 745 mmHg 74%
    06:00 +2°C° 0 mm 2 mps 746 mmHg 74%
    07:00 +2°C° 0 mm 3 mps 746 mmHg 71%
    08:00 +3°C° 0 mm 3 mps 746 mmHg 68%
    09:00 +4°C° 0 mm 3 mps 746 mmHg 65%
    10:00 +6°C° 0 mm 4 mps 746 mmHg 61%
    11:00 +7°C° 0 mm 4 mps 746 mmHg 58%
    12:00 +8°C° 0 mm 4 mps 746 mmHg 55%
    13:00 +10°C° 0 mm 4 mps 746 mmHg 54%
    14:00 +10°C° 0 mm 4 mps 745 mmHg 53%
    15:00 +11°C° 0 mm 4 mps 745 mmHg 51%
    16:00 +10°C° 0 mm 4 mps 744 mmHg 56%
    17:00 +8°C° 0 mm 4 mps 744 mmHg 60%
    18:00 +8°C° 0 mm 3 mps 744 mmHg 65%
    19:00 +6°C° 0 mm 4 mps 744 mmHg 67%
    20:00 +6°C° 0 mm 4 mps 744 mmHg 69%
    21:00 +5°C° 0 mm 4 mps 744 mmHg 71%
    22:00 +5°C° 0 mm 4 mps 743 mmHg 72%
    23:00 +5°C° 0 mm 4 mps 743 mmHg 73%
    Show more